| time (UTC) | temp C | wind direction | speed KPH | gust KPH | rain 1hr cm | rain 24hr cm | rain mn cm | humidity % | barometer mb |
| 20260502163019 | 12 | 254 | 1.6 | 8.0 | 0.00 | 0.03 | 0.00 | 23 | 1032.4 |
| 20260502161515 | 11 | 161 | 1.6 | 6.4 | 0.00 | 0.03 | 0.00 | 28 | 1032.5 |
| 20260502151510 | 10 | 284 | 4.8 | 12.9 | 0.00 | 0.08 | 0.00 | 29 | 1032.9 |
| 20260502123044 | 3 | 116 | 0.0 | 0.0 | 0.00 | 0.08 | 0.00 | 45 | 1033.1 |
| 20260502121553 | 3 | 116 | 0.0 | 4.8 | 0.00 | 0.08 | 0.00 | 44 | 1032.8 |
| 20260502114541 | 5 | 307 | 0.0 | 4.8 | 0.00 | 0.08 | 0.00 | 38 | 1032.8 |
| 20260502113039 | 5 | 268 | 1.6 | 8.0 | 0.00 | 0.08 | 0.00 | 37 | 1032.8 |
| 20260502111538 | 5 | 287 | 3.2 | 11.3 | 0.00 | 0.08 | 0.00 | 38 | 1032.8 |
| 20260502110037 | 5 | 271 | 1.6 | 9.7 | 0.00 | 0.08 | 0.00 | 38 | 1032.9 |
| 20260502104543 | 5 | 225 | 3.2 | 8.0 | 0.00 | 0.08 | 0.00 | 37 | 1033.0 |
| 20260502103048 | 5 | 284 | 3.2 | 11.3 | 0.00 | 0.08 | 0.00 | 37 | 1033.1 |
| 20260502101545 | 5 | 281 | 1.6 | 8.0 | 0.00 | 0.08 | 0.00 | 38 | 1033.1 |
| 20260502071514 | 5 | 285 | 1.6 | 6.4 | 0.00 | 0.08 | 0.00 | 38 | 1033.9 |
| 20260502070019 | 5 | 296 | 3.2 | 6.4 | 0.00 | 0.08 | 0.00 | 36 | 1033.9 |
| 20260502064525 | 5 | 319 | 0.0 | 8.0 | 0.00 | 0.08 | 0.08 | 36 | 1033.9 |
| 20260502063011 | 6 | 297 | 1.6 | 8.0 | 0.00 | 0.08 | 0.08 | 35 | 1033.8 |
| 20260502061509 | 6 | 339 | 3.2 | 9.7 | 0.00 | 0.08 | 0.08 | 34 | 1033.8 |
| 20260502060010 | 6 | 315 | 1.6 | 11.3 | 0.00 | 0.08 | 0.08 | 34 | 1033.7 |
| 20260502054508 | 5 | 307 | 1.6 | 4.8 | 0.00 | 0.08 | 0.08 | 37 | 1033.7 |
| 20260502053008 | 5 | 271 | 1.6 | 4.8 | 0.00 | 0.08 | 0.08 | 39 | 1033.6 |
| 20260502051509 | 5 | 266 | 1.6 | 4.8 | 0.00 | 0.08 | 0.08 | 39 | 1033.6 |
| 20260502050007 | 5 | 282 | 1.6 | 3.2 | 0.00 | 0.08 | 0.08 | 40 | 1033.6 |
| 20260502044507 | 5 | 278 | 1.6 | 4.8 | 0.00 | 0.08 | 0.08 | 40 | 1033.6 |
| 20260502043009 | 5 | 269 | 1.6 | 3.2 | 0.00 | 0.08 | 0.08 | 40 | 1033.7 |
| 20260502041506 | 5 | 278 | 1.6 | 4.8 | 0.00 | 0.08 | 0.08 | 40 | 1033.6 |
| 20260502040011 | 5 | 268 | 1.6 | 1.6 | 0.00 | 0.08 | 0.08 | 41 | 1033.6 |
| 20260502034505 | 5 | 268 | 1.6 | 3.2 | 0.00 | 0.08 | 0.08 | 40 | 1033.5 |
| 20260502033005 | 5 | 271 | 1.6 | 3.2 | 0.00 | 0.08 | 0.08 | 41 | 1033.5 |
| 20260502031504 | 5 | 278 | 0.0 | 4.8 | 0.00 | 0.08 | 0.08 | 40 | 1033.5 |
| 20260502030004 | 5 | 271 | 1.6 | 3.2 | 0.00 | 0.08 | 0.08 | 41 | 1033.3 |
| 20260502024503 | 5 | 270 | 1.6 | 3.2 | 0.00 | 0.10 | 0.08 | 41 | 1033.1 |
| 20260502023007 | 5 | 268 | 0.0 | 3.2 | 0.00 | 0.10 | 0.08 | 42 | 1032.8 |
| 20260502021502 | 6 | 268 | 0.0 | 3.2 | 0.00 | 0.10 | 0.08 | 41 | 1032.8 |
| 20260502020002 | 6 | 275 | 0.0 | 1.6 | 0.00 | 0.10 | 0.08 | 41 | 1032.8 |
| 20260502014502 | 7 | 276 | 0.0 | 3.2 | 0.00 | 0.15 | 0.08 | 41 | 1032.6 |
| 20260502013001 | 7 | 273 | 0.0 | 1.6 | 0.00 | 0.15 | 0.08 | 38 | 1032.4 |
| 20260502011611 | 8 | 88 | 0.0 | 1.6 | 0.00 | 0.15 | 0.08 | 37 | 1032.4 |
| 20260502010059 | 10 | 143 | 0.0 | 1.6 | 0.00 | 0.15 | 0.08 | 35 | 1032.4 |
| 20260502004607 | 12 | 103 | 0.0 | 3.2 | 0.00 | 0.18 | 0.08 | 33 | 1032.4 |
| 20260502003058 | 12 | 126 | 0.0 | 4.8 | 0.00 | 0.18 | 0.08 | 35 | 1032.4 |
| 20260502001555 | 11 | 22 | 0.0 | 3.2 | 0.00 | 0.18 | 0.08 | 35 | 1032.3 |
| 20260502000110 | 10 | 107 | 1.6 | 4.8 | 0.00 | 0.18 | 0.08 | 38 | 1032.4 |
| 20260501234552 | 9 | 77 | 0.0 | 4.8 | 0.00 | 0.18 | 0.08 | 42 | 1032.3 |
| 20260501233052 | 10 | 286 | 0.0 | 4.8 | 0.00 | 0.18 | 0.08 | 39 | 1032.2 |
| 20260501231553 | 10 | 100 | 0.0 | 3.2 | 0.00 | 0.18 | 0.08 | 41 | 1032.2 |
| 20260501230046 | 10 | 343 | 0.0 | 3.2 | 0.00 | 0.18 | 0.08 | 40 | 1032.3 |
| 20260501224554 | 9 | 267 | 0.0 | 4.8 | 0.00 | 0.18 | 0.08 | 42 | 1032.3 |
| 20260501223045 | 9 | 254 | 0.0 | 6.4 | 0.00 | 0.18 | 0.08 | 39 | 1032.3 |
| 20260501221603 | 10 | 281 | 3.2 | 4.8 | 0.00 | 0.18 | 0.08 | 39 | 1032.4 |
| 20260501220047 | 9 | 101 | 1.6 | 3.2 | 0.00 | 0.18 | 0.08 | 41 | 1032.4 |
| 20260501214542 | 9 | 138 | 0.0 | 4.8 | 0.00 | 0.18 | 0.08 | 43 | 1032.5 |
| 20260501213042 | 10 | 115 | 1.6 | 8.0 | 0.00 | 0.18 | 0.08 | 42 | 1032.7 |
| 20260501211540 | 9 | 342 | 1.6 | 11.3 | 0.00 | 0.18 | 0.08 | 44 | 1032.9 |
| 20260501210040 | 8 | 119 | 3.2 | 8.0 | 0.00 | 0.18 | 0.08 | 44 | 1033.4 |
| 20260501204539 | 9 | 145 | 1.6 | 9.7 | 0.00 | 0.18 | 0.08 | 46 | 1033.4 |
| 20260501203038 | 8 | 113 | 0.0 | 8.0 | 0.00 | 0.18 | 0.08 | 44 | 1033.5 |
| 20260501201537 | 9 | 131 | 1.6 | 4.8 | 0.00 | 0.18 | 0.08 | 48 | 1033.5 |
| 20260501200033 | 8 | 248 | 0.0 | 4.8 | 0.00 | 0.18 | 0.08 | 48 | 1033.8 |
| 20260501194531 | 8 | 109 | 1.6 | 14.5 | 0.00 | 0.18 | 0.08 | 50 | 1033.8 |
| 20260501193036 | 8 | 101 | 1.6 | 8.0 | 0.00 | 0.18 | 0.08 | 50 | 1033.9 |
| 20260501191533 | 8 | 145 | 0.0 | 3.2 | 0.00 | 0.18 | 0.08 | 50 | 1034.1 |
| 20260501190049 | 7 | 161 | 3.2 | 6.4 | 0.00 | 0.18 | 0.08 | 45 | 1034.3 |
| 20260501184534 | 7 | 123 | 0.0 | 4.8 | 0.00 | 0.18 | 0.08 | 48 | 1034.4 |
| 20260501183026 | 7 | 322 | 1.6 | 4.8 | 0.00 | 0.18 | 0.08 | 48 | 1034.5 |
| 20260501181525 | 7 | 119 | 0.0 | 4.8 | 0.00 | 0.18 | 0.08 | 50 | 1034.6 |
| 20260501180023 | 7 | 119 | 3.2 | 9.7 | 0.00 | 0.18 | 0.08 | 50 | 1034.7 |
| 20260501174521 | 6 | 282 | 0.0 | 8.0 | 0.00 | 0.18 | 0.08 | 48 | 1034.8 |